Private Wetterstation Wechselburg
Wetterdaten: Montag, 05.12.2011
Datum Zeit Temp. +2m Bodentemp. Temp.+5cm Temp. Wind Windchill X Diff Temp. Feuchte +2m Feuchte +5cm Sonnenschein Luftdruck Regen Wind Richtung Richtung Sonnenschein UV Taupunkt Windchill Windben
05.12.2011 00:00 7,1 C 11,8 C 6,7 C 6,5 C 5,3 C 0,0 C 84 % 88 % 0 % 996,1 hPa 0,0 l/m 6,4 km/h (2 Bft) S-SO 157 0 min 0,0 UV-I 4,6 C 3,9 C 12,6 km/h (3 Bft)
05.12.2011 00:15 6,9 C 11,8 C 6,7 C 6,3 C 5,0 C 0,0 C 84 % 88 % 0 % 996,1 hPa 0,0 l/m 7,1 km/h (2 Bft) S-SO 157 0 min 0,0 UV-I 4,4 C 3,4 C 8,2 km/h (2 Bft)
05.12.2011 00:20 6,9 C 11,8 C 6,5 C 6,3 C 5,1 C 0,0 C 85 % 88 % 0 % 996,1 hPa 0,7 l/m 6,8 km/h (2 Bft) SO 135 0 min 0,0 UV-I 4,6 C 3,6 C 5,0 km/h (1 Bft)
05.12.2011 00:25 6,9 C 11,8 C 6,7 C 6,4 C 4,8 C 0,0 C 85 % 88 % 0 % 996,1 hPa 0,0 l/m 7,9 km/h (2 Bft) S 180 0 min 0,0 UV-I 4,6 C 2,9 C 13,4 km/h (3 Bft)
05.12.2011 00:30 6,9 C 11,8 C 6,7 C 6,2 C 4,9 C 0,0 C 85 % 88 % 0 % 996,1 hPa 0,0 l/m 7,4 km/h (2 Bft) S-SW 202 0 min 0,0 UV-I 4,6 C 3,2 C 6,6 km/h (2 Bft)
05.12.2011 00:35 6,9 C 11,9 C 6,5 C 6,2 C 4,8 C 0,0 C 85 % 89 % 0 % 996,1 hPa 0,0 l/m 7,6 km/h (2 Bft) S-SO 157 0 min 0,0 UV-I 4,6 C 3,0 C 10,1 km/h (2 Bft)
05.12.2011 00:40 6,8 C 11,9 C 6,4 C 6,3 C 5,3 C 0,0 C 85 % 89 % 0 % 995,2 hPa 0,0 l/m 5,6 km/h (1 Bft) O-NO 67 0 min 0,0 UV-I 4,5 C 4,2 C 2,7 km/h (1 Bft)
05.12.2011 00:45 6,8 C 11,9 C 6,3 C 6,5 C 5,8 C 0,0 C 85 % 90 % 0 % 995,2 hPa 0,0 l/m 4,2 km/h (1 Bft) SW 225 0 min 0,0 UV-I 4,5 C 5,8 C 7,6 km/h (2 Bft)
05.12.2011 00:50 6,8 C 11,9 C 6,3 C 6,5 C 6,0 C 0,0 C 86 % 90 % 0 % 995,2 hPa 0,0 l/m 3,7 km/h (1 Bft) SO 135 0 min 0,0 UV-I 4,6 C 6,0 C 4,8 km/h (1 Bft)
05.12.2011 00:55 6,7 C 11,9 C 6,2 C 6,3 C 5,6 C 0,0 C 86 % 91 % 0 % 995,2 hPa 0,0 l/m 4,3 km/h (1 Bft) S-SO 157 0 min 0,0 UV-I 4,5 C 5,6 C 3,4 km/h (1 Bft)
05.12.2011 01:00 6,6 C 11,9 C 6,1 C 6,3 C 5,8 C 0,0 C 86 % 92 % 0 % 994,9 hPa 0,0 l/m 3,9 km/h (1 Bft) W-SW 247 0 min 0,0 UV-I 4,4 C 5,8 C 3,9 km/h (1 Bft)
05.12.2011 01:04 6,7 C 11,8 C 6,1 C 6,4 C 5,7 C 0,0 C 86 % 92 % 0 % 994,9 hPa 0,7 l/m 4,2 km/h (1 Bft) W 270 0 min 0,0 UV-I 4,5 C 5,7 C 6,9 km/h (2 Bft)
05.12.2011 01:09 6,7 C 11,8 C 6,0 C 6,3 C 5,4 C 0,0 C 86 % 92 % 0 % 994,9 hPa 0,0 l/m 4,5 km/h (1 Bft) SW 225 0 min 0,0 UV-I 4,5 C 5,4 C 4,8 km/h (1 Bft)
05.12.2011 01:14 6,5 C 11,8 C 5,9 C 6,1 C 5,4 C 0,0 C 87 % 92 % 0 % 994,9 hPa 0,0 l/m 4,5 km/h (1 Bft) N 360 0 min 0,0 UV-I 4,5 C 5,4 C 3,2 km/h (1 Bft)
05.12.2011 01:19 6,5 C 11,8 C 5,9 C 6,1 C 5,3 C 0,0 C 87 % 92 % 0 % 994,3 hPa 0,7 l/m 4,3 km/h (1 Bft) W-SW 247 0 min 0,0 UV-I 4,5 C 5,3 C 6,1 km/h (2 Bft)
05.12.2011 01:25 6,5 C 11,8 C 5,9 C 6,2 C 5,7 C 0,0 C 86 % 93 % 0 % 994,3 hPa 0,0 l/m 3,7 km/h (1 Bft) SO 135 0 min 0,0 UV-I 4,3 C 5,7 C 6,9 km/h (2 Bft)
05.12.2011 01:30 6,4 C 11,8 C 5,7 C 6,2 C 5,9 C 0,0 C 86 % 93 % 0 % 994,3 hPa 0,0 l/m 3,2 km/h (1 Bft) W 270 0 min 0,0 UV-I 4,2 C 5,9 C 0,0 km/h (0 Bft)
05.12.2011 01:35 6,4 C 11,8 C 5,7 C 6,2 C 5,8 C 0,0 C 87 % 93 % 0 % 994,3 hPa 0,0 l/m 1,4 km/h (1 Bft) S-SO 157 0 min 0,0 UV-I 4,4 C 5,8 C 0,0 km/h (0 Bft)
05.12.2011 01:40 6,4 C 11,8 C 5,7 C 6,2 C 5,8 C 0,0 C 87 % 93 % 0 % 994,1 hPa 1,4 l/m 1,1 km/h (1 Bft) SW 225 0 min 0,0 UV-I 4,4 C 5,8 C 1,8 km/h (1 Bft)
05.12.2011 01:45 6,3 C 11,8 C 5,6 C 6,1 C 5,8 C 0,0 C 87 % 93 % 0 % 994,1 hPa 0,7 l/m 2,4 km/h (1 Bft) W-SW 247 0 min 0,0 UV-I 4,3 C 5,8 C 6,1 km/h (2 Bft)
05.12.2011 01:50 6,3 C 11,8 C 5,6 C 6,1 C 5,6 C 0,0 C 88 % 93 % 0 % 994,1 hPa 0,0 l/m 3,5 km/h (1 Bft) SW 225 0 min 0,0 UV-I 4,5 C 5,6 C 4,5 km/h (1 Bft)
05.12.2011 01:55 6,3 C 11,8 C 5,6 C 5,7 C 4,5 C 0,0 C 87 % 93 % 0 % 994,1 hPa 0,7 l/m 6,3 km/h (2 Bft) SW 225 0 min 0,0 UV-I 4,3 C 3,0 C 7,2 km/h (2 Bft)
05.12.2011 02:00 6,3 C 11,8 C 5,5 C 5,6 C 4,2 C 0,0 C 87 % 93 % 0 % 993,9 hPa 0,0 l/m 7,1 km/h (2 Bft) SW 225 0 min 0,0 UV-I 4,3 C 2,5 C 9,7 km/h (2 Bft)
05.12.2011 02:04 6,1 C 11,9 C 5,5 C 5,5 C 4,2 C 0,0 C 87 % 93 % 0 % 993,9 hPa 0,7 l/m 6,8 km/h (2 Bft) NW 315 0 min 0,0 UV-I 4,1 C 2,5 C 10,1 km/h (2 Bft)
05.12.2011 02:09 6,0 C 11,9 C 5,3 C 5,5 C 3,8 C 0,0 C 87 % 93 % 0 % 993,9 hPa 0,7 l/m 8,4 km/h (2 Bft) S-SW 202 0 min 0,0 UV-I 4,0 C 1,6 C 16,4 km/h (3 Bft)
05.12.2011 02:14 5,9 C 11,9 C 5,2 C 5,3 C 3,2 C 0,0 C 86 % 93 % 0 % 993,9 hPa 0,0 l/m 9,0 km/h (2 Bft) W-SW 247 0 min 0,0 UV-I 3,7 C 0,8 C 6,1 km/h (2 Bft)
05.12.2011 02:18 5,9 C 11,9 C 5,2 C 5,0 C 3,2 C 0,0 C 86 % 93 % 0 % 993,9 hPa 0,0 l/m 9,0 km/h (2 Bft) W-SW 247 0 min 0,0 UV-I 3,7 C 0,8 C 6,1 km/h (2 Bft)
05.12.2011 02:25 5,6 C 11,9 C 5,1 C 5,2 C 4,3 C 0,0 C 87 % 94 % 0 % 994,0 hPa 0,7 l/m 4,7 km/h (1 Bft) SO 135 0 min 0,0 UV-I 3,6 C 3,4 C 4,8 km/h (1 Bft)
05.12.2011 02:30 5,6 C 11,9 C 5,1 C 5,3 C 4,6 C 0,0 C 87 % 94 % 0 % 994,0 hPa 0,0 l/m 4,2 km/h (1 Bft) W-SW 247 0 min 0,0 UV-I 3,6 C 4,6 C 6,1 km/h (2 Bft)
05.12.2011 02:35 5,5 C 11,9 C 4,9 C 5,0 C 4,0 C 0,0 C 87 % 94 % 0 % 994,0 hPa 0,7 l/m 5,5 km/h (1 Bft) W-SW 247 0 min 0,0 UV-I 3,5 C 2,8 C 14,0 km/h (3 Bft)
05.12.2011 02:40 5,5 C 11,9 C 4,8 C 4,9 C 3,6 C 0,0 C 87 % 94 % 0 % 994,1 hPa 0,7 l/m 6,4 km/h (2 Bft) W-SW 247 0 min 0,0 UV-I 3,5 C 2,0 C 8,9 km/h (2 Bft)
05.12.2011 02:45 5,3 C 11,9 C 4,7 C 4,7 C 3,5 C 0,0 C 87 % 94 % 0 % 994,1 hPa 0,0 l/m 5,8 km/h (2 Bft) SW 225 0 min 0,0 UV-I 3,3 C 2,1 C 8,9 km/h (2 Bft)
05.12.2011 02:50 5,2 C 11,9 C 4,7 C 4,9 C 4,2 C 0,0 C 87 % 94 % 0 % 994,1 hPa 0,7 l/m 4,0 km/h (1 Bft) SO 135 0 min 0,0 UV-I 3,2 C 4,2 C 2,1 km/h (1 Bft)
05.12.2011 02:55 5,1 C 11,8 C 4,5 C 4,9 C 4,5 C 0,0 C 87 % 94 % 0 % 994,1 hPa 0,7 l/m 2,1 km/h (1 Bft) SW 225 0 min 0,0 UV-I 3,1 C 4,5 C 2,6 km/h (1 Bft)
05.12.2011 03:00 5,0 C 11,9 C 4,5 C 4,8 C 4,5 C 0,0 C 87 % 94 % 0 % 993,2 hPa 0,0 l/m 1,1 km/h (1 Bft) SO 135 0 min 0,0 UV-I 3,0 C 4,5 C 0,0 km/h (0 Bft)
05.12.2011 03:12 4,9 C 11,8 C 4,5 C 4,7 C 4,4 C 0,0 C 87 % 94 % 0 % 993,2 hPa 0,0 l/m 1,0 km/h (0 Bft) N 0 0 min 0,0 UV-I 2,9 C 4,4 C 0,0 km/h (0 Bft)
05.12.2011 03:20 4,8 C 11,8 C 4,4 C 4,7 C 4,4 C 0,0 C 88 % 94 % 0 % 993,2 hPa 0,0 l/m 2,1 km/h (1 Bft) S 180 0 min 0,0 UV-I 3,0 C 4,4 C 2,1 km/h (1 Bft)
05.12.2011 03:25 4,7 C 11,8 C 4,4 C 4,6 C 4,4 C 0,0 C 88 % 94 % 0 % 993,2 hPa 0,0 l/m 2,4 km/h (1 Bft) W-SW 247 0 min 0,0 UV-I 2,9 C 4,4 C 2,4 km/h (1 Bft)
05.12.2011 03:30 4,7 C 11,8 C 4,3 C 4,6 C 4,3 C 0,0 C 88 % 94 % 0 % 993,2 hPa 0,0 l/m 1,3 km/h (1 Bft) NW 315 0 min 0,0 UV-I 2,9 C 4,3 C 0,0 km/h (0 Bft)
05.12.2011 03:35 4,7 C 11,8 C 4,3 C 4,6 C 4,3 C 0,0 C 88 % 94 % 0 % 993,2 hPa 0,7 l/m 1,0 km/h (0 Bft) W 270 0 min 0,0 UV-I 2,9 C 4,3 C 5,8 km/h (2 Bft)
05.12.2011 03:40 4,6 C 11,8 C 4,3 C 4,5 C 4,3 C 0,0 C 88 % 94 % 0 % 992,8 hPa 0,0 l/m 1,4 km/h (1 Bft) S 180 0 min 0,0 UV-I 2,8 C 4,3 C 4,7 km/h (1 Bft)
05.12.2011 03:45 4,5 C 11,8 C 4,2 C 4,4 C 4,2 C 0,0 C 88 % 94 % 0 % 992,8 hPa 0,0 l/m 1,9 km/h (1 Bft) SW 225 0 min 0,0 UV-I 2,7 C 4,2 C 4,0 km/h (1 Bft)
05.12.2011 03:50 4,5 C 11,8 C 4,3 C 4,4 C 4,2 C 0,0 C 89 % 94 % 0 % 992,8 hPa 0,0 l/m 2,3 km/h (1 Bft) W 270 0 min 0,0 UV-I 2,8 C 4,2 C 4,8 km/h (1 Bft)
05.12.2011 03:55 4,4 C 11,8 C 4,3 C 4,3 C 4,2 C 0,0 C 89 % 94 % 0 % 992,8 hPa 0,0 l/m 2,3 km/h (1 Bft) S-SO 157 0 min 0,0 UV-I 2,7 C 4,2 C 3,4 km/h (1 Bft)
05.12.2011 04:00 4,4 C 11,8 C 4,2 C 4,3 C 4,2 C 0,0 C 89 % 94 % 0 % 993,0 hPa 0,7 l/m 2,4 km/h (1 Bft) W-NW 292 0 min 0,0 UV-I 2,7 C 4,2 C 2,6 km/h (1 Bft)
05.12.2011 04:10 4,4 C 11,8 C 4,3 C 4,2 C 3,7 C 0,0 C 89 % 94 % 0 % 993,0 hPa 0,0 l/m 3,9 km/h (1 Bft) N 0 0 min 0,0 UV-I 2,7 C 3,7 C 2,9 km/h (1 Bft)
05.12.2011 04:20 4,4 C 11,8 C 4,3 C 4,0 C 3,1 C 0,0 C 90 % 94 % 0 % 993,5 hPa 0,0 l/m 5,3 km/h (1 Bft) W-SW 247 0 min 0,0 UV-I 2,9 C 1,8 C 5,5 km/h (1 Bft)
05.12.2011 04:25 4,3 C 11,8 C 4,0 C 3,8 C 2,9 C 0,0 C 90 % 94 % 0 % 993,5 hPa 0,0 l/m 5,3 km/h (1 Bft) W-SW 247 0 min 0,0 UV-I 2,8 C 1,6 C 6,9 km/h (2 Bft)
05.12.2011 04:30 4,3 C 11,8 C 4,1 C 3,7 C 2,5 C 0,0 C 89 % 94 % 0 % 993,5 hPa 0,0 l/m 6,1 km/h (2 Bft) S-SW 202 0 min 0,0 UV-I 2,7 C 0,8 C 12,1 km/h (2 Bft)
05.12.2011 04:35 4,3 C 11,8 C 4,0 C 3,8 C 1,8 C 0,0 C 90 % 94 % 0 % 993,5 hPa 0,7 l/m 8,7 km/h (2 Bft) W-SW 247 0 min 0,0 UV-I 2,8 C -0,8 C 20,1 km/h (4 Bft)
05.12.2011 04:40 4,3 C 11,8 C 4,0 C 3,6 C 1,3 C 0,0 C 89 % 94 % 0 % 993,5 hPa 0,0 l/m 10,0 km/h (2 Bft) W 270 0 min 0,0 UV-I 2,7 C -1,8 C 13,0 km/h (3 Bft)
05.12.2011 04:45 4,2 C 11,8 C 3,9 C 3,5 C 1,4 C 0,0 C 90 % 94 % 0 % 993,5 hPa 0,0 l/m 9,5 km/h (2 Bft) W-SW 247 0 min 0,0 UV-I 2,7 C -1,5 C 15,1 km/h (3 Bft)
05.12.2011 04:50 4,1 C 11,8 C 3,9 C 3,5 C 1,6 C 0,0 C 90 % 95 % 0 % 993,5 hPa 0,0 l/m 9,2 km/h (2 Bft) SW 225 0 min 0,0 UV-I 2,6 C -1,2 C 8,2 km/h (2 Bft)
05.12.2011 04:55 4,1 C 11,7 C 3,9 C 3,5 C 1,8 C 0,0 C 90 % 95 % 0 % 993,5 hPa 0,0 l/m 8,0 km/h (2 Bft) S-SW 202 0 min 0,0 UV-I 2,6 C -0,6 C 11,9 km/h (2 Bft)
05.12.2011 05:00 4,1 C 11,7 C 3,9 C 3,3 C 1,8 C 0,0 C 90 % 95 % 0 % 994,1 hPa 0,0 l/m 8,2 km/h (2 Bft) SW 225 0 min 0,0 UV-I 2,6 C -0,7 C 11,4 km/h (2 Bft)
05.12.2011 05:10 4,1 C 11,7 C 3,9 C 3,5 C 1,6 C 0,0 C 90 % 95 % 0 % 994,1 hPa 0,7 l/m 9,0 km/h (2 Bft) N 0 0 min 0,0 UV-I 2,6 C -1,1 C 6,3 km/h (2 Bft)
05.12.2011 05:20 4,0 C 11,7 C 4,0 C 3,4 C 2,1 C 0,0 C 90 % 95 % 0 % 994,7 hPa 0,0 l/m 7,4 km/h (2 Bft) SW 225 0 min 0,0 UV-I 2,5 C -0,1 C 8,9 km/h (2 Bft)
05.12.2011 05:25 4,0 C 11,7 C 4,0 C 3,4 C 2,1 C 0,0 C 90 % 95 % 0 % 994,7 hPa 0,7 l/m 7,4 km/h (2 Bft) SW 225 0 min 0,0 UV-I 2,5 C -0,1 C 11,1 km/h (2 Bft)
05.12.2011 05:30 4,0 C 11,7 C 4,0 C 3,6 C 1,9 C 0,0 C 90 % 95 % 0 % 994,7 hPa 0,0 l/m 8,4 km/h (2 Bft) W-SW 247 0 min 0,0 UV-I 2,5 C -0,6 C 17,7 km/h (3 Bft)
05.12.2011 05:35 4,1 C 11,7 C 3,9 C 3,5 C 1,2 C 0,0 C 90 % 95 % 0 % 994,7 hPa 0,0 l/m 10,9 km/h (2 Bft) SW 225 0 min 0,0 UV-I 2,6 C -2,1 C 11,4 km/h (2 Bft)
05.12.2011 05:40 4,1 C 11,7 C 3,9 C 3,4 C 1,1 C 0,0 C 90 % 95 % 0 % 994,9 hPa 0,0 l/m 11,7 km/h (2 Bft) W-SW 247 0 min 0,0 UV-I 2,6 C -2,4 C 16,1 km/h (3 Bft)
05.12.2011 05:45 4,2 C 11,7 C 4,0 C 3,5 C 1,3 C 0,0 C 90 % 95 % 0 % 994,9 hPa 0,0 l/m 11,6 km/h (2 Bft) SW 225 0 min 0,0 UV-I 2,7 C -2,1 C 20,8 km/h (4 Bft)
05.12.2011 05:50 4,2 C 11,7 C 3,9 C 3,2 C 1,3 C 0,0 C 90 % 95 % 0 % 994,9 hPa 0,0 l/m 12,1 km/h (2 Bft) W-SW 247 0 min 0,0 UV-I 2,7 C -2,2 C 10,9 km/h (2 Bft)
05.12.2011 05:55 4,3 C 11,7 C 3,9 C 3,3 C 1,3 C 0,0 C 90 % 95 % 0 % 994,9 hPa 0,0 l/m 11,9 km/h (2 Bft) W-SW 247 0 min 0,0 UV-I 2,8 C -2,2 C 15,3 km/h (3 Bft)
05.12.2011 06:00 4,3 C 11,7 C 4,0 C 3,3 C 1,3 C 0,0 C 90 % 95 % 0 % 995,2 hPa 0,0 l/m 11,9 km/h (2 Bft) W-SW 247 0 min 0,0 UV-I 2,8 C -2,2 C 14,3 km/h (3 Bft)
05.12.2011 06:04 4,2 C 11,6 C 4,0 C 3,4 C 1,4 C 0,0 C 90 % 95 % 0 % 995,2 hPa 0,0 l/m 12,1 km/h (2 Bft) W 270 0 min 0,0 UV-I 2,7 C -2,1 C 19,8 km/h (3 Bft)
05.12.2011 06:09 4,3 C 11,7 C 4,0 C 3,7 C 1,5 C 0,0 C 90 % 95 % 0 % 995,2 hPa 0,0 l/m 11,3 km/h (2 Bft) SW 225 0 min 0,0 UV-I 2,8 C -1,8 C 13,8 km/h (3 Bft)
05.12.2011 06:14 4,3 C 11,6 C 4,1 C 3,7 C 1,7 C 0,0 C 90 % 95 % 0 % 995,2 hPa 0,0 l/m 10,5 km/h (2 Bft) N-NO 22 0 min 0,0 UV-I 2,8 C -1,4 C 21,6 km/h (4 Bft)
05.12.2011 06:18 4,3 C 11,6 C 4,1 C 3,4 C 1,7 C 0,0 C 90 % 95 % 0 % 995,2 hPa 0,0 l/m 10,5 km/h (2 Bft) N-NO 22 0 min 0,0 UV-I 2,8 C -1,4 C 21,6 km/h (4 Bft)
05.12.2011 06:25 4,4 C 11,6 C 4,0 C 3,7 C 1,1 C 0,0 C 89 % 95 % 0 % 995,2 hPa 0,0 l/m 13,5 km/h (3 Bft) SW 225 0 min 0,0 UV-I 2,7 C -2,8 C 22,9 km/h (4 Bft)
05.12.2011 06:30 4,4 C 11,6 C 4,1 C 3,7 C 1,2 C 0,0 C 89 % 95 % 0 % 995,2 hPa 0,0 l/m 13,0 km/h (3 Bft) SW 225 0 min 0,0 UV-I 2,7 C -2,6 C 11,1 km/h (2 Bft)
05.12.2011 06:35 4,3 C 11,6 C 4,1 C 3,6 C 1,1 C 0,0 C 89 % 95 % 0 % 995,2 hPa 0,0 l/m 12,9 km/h (3 Bft) W-SW 247 0 min 0,0 UV-I 2,7 C -2,7 C 23,0 km/h (4 Bft)
05.12.2011 06:40 4,3 C 11,6 C 4,0 C 3,6 C 1,2 C 0,0 C 90 % 95 % 0 % 995,9 hPa 0,0 l/m 12,7 km/h (3 Bft) W 270 0 min 0,0 UV-I 2,8 C -2,5 C 15,1 km/h (3 Bft)
05.12.2011 06:45 4,4 C 11,6 C 4,0 C 3,7 C 1,1 C 0,0 C 89 % 95 % 0 % 995,9 hPa 0,0 l/m 13,7 km/h (3 Bft) W-SW 247 0 min 0,0 UV-I 2,7 C -2,8 C 28,5 km/h (4 Bft)
05.12.2011 06:50 4,4 C 11,6 C 4,0 C 3,6 C 0,9 C 0,0 C 89 % 95 % 0 % 995,9 hPa 0,0 l/m 14,5 km/h (3 Bft) W-SW 247 0 min 0,0 UV-I 2,7 C -3,2 C 18,2 km/h (3 Bft)
05.12.2011 06:55 4,4 C 11,6 C 4,0 C 3,6 C 0,7 C 0,0 C 88 % 95 % 0 % 995,9 hPa 0,0 l/m 15,8 km/h (3 Bft) SW 225 0 min 0,0 UV-I 2,6 C -3,7 C 16,3 km/h (3 Bft)
05.12.2011 07:00 4,5 C 11,6 C 4,0 C 3,2 C 0,7 C 0,0 C 88 % 95 % 0 % 996,6 hPa 0,0 l/m 15,9 km/h (3 Bft) W-SW 247 0 min 0,0 UV-I 2,7 C -3,7 C 10,3 km/h (2 Bft)
05.12.2011 07:10 4,5 C 11,6 C 4,0 C 3,6 C 1,0 C 0,0 C 88 % 95 % 0 % 996,6 hPa 0,0 l/m 12,9 km/h (3 Bft) N 0 0 min 0,0 UV-I 2,7 C -2,8 C 14,8 km/h (3 Bft)
05.12.2011 07:20 4,3 C 11,5 C 3,8 C 3,4 C 0,4 C 0,0 C 88 % 94 % 0 % 997,2 hPa 0,7 l/m 14,5 km/h (3 Bft) SW 225 0 min 0,0 UV-I 2,5 C -3,8 C 29,0 km/h (5 Bft)
05.12.2011 07:25 4,2 C 11,5 C 3,9 C 3,3 C 0,6 C 0,0 C 88 % 94 % 0 % 997,2 hPa 0,0 l/m 13,0 km/h (3 Bft) SW 225 0 min 0,0 UV-I 2,4 C -3,3 C 14,5 km/h (3 Bft)
05.12.2011 07:30 4,3 C 11,5 C 3,8 C 3,1 C 0,6 C 0,0 C 88 % 94 % 0 % 997,2 hPa 0,0 l/m 12,7 km/h (3 Bft) SW 225 0 min 0,0 UV-I 2,5 C -3,2 C 17,7 km/h (3 Bft)
05.12.2011 07:35 4,3 C 11,5 C 3,9 C 3,1 C 0,6 C 0,0 C 88 % 94 % 0 % 997,2 hPa 0,0 l/m 13,7 km/h (3 Bft) W-SW 247 0 min 0,0 UV-I 2,5 C -3,4 C 20,4 km/h (4 Bft)
05.12.2011 07:40 4,3 C 11,4 C 3,7 C 3,1 C 0,6 C 0,0 C 88 % 94 % 0 % 997,7 hPa 0,0 l/m 13,4 km/h (3 Bft) W-SW 247 0 min 0,0 UV-I 2,5 C -3,4 C 13,7 km/h (3 Bft)
05.12.2011 07:45 4,3 C 11,4 C 3,7 C 3,5 C 0,7 C 0,0 C 88 % 94 % 0 % 997,7 hPa 0,0 l/m 14,0 km/h (3 Bft) W-SW 247 0 min 0,0 UV-I 2,5 C -3,4 C 12,9 km/h (3 Bft)
05.12.2011 07:50 4,3 C 11,4 C 3,7 C 3,1 C 0,7 C 0,0 C 88 % 94 % 0 % 997,7 hPa 0,0 l/m 13,7 km/h (3 Bft) W-SW 247 0 min 0,0 UV-I 2,5 C -3,3 C 13,4 km/h (3 Bft)
05.12.2011 07:55 4,3 C 11,3 C 3,7 C 3,5 C 1,1 C 0,0 C 88 % 94 % 0 % 997,7 hPa 0,0 l/m 12,2 km/h (2 Bft) S-SW 202 0 min 0,0 UV-I 2,5 C -2,5 C 13,8 km/h (3 Bft)
05.12.2011 08:00 4,2 C 11,3 C 3,7 C 3,5 C 1,3 C 0,0 C 88 % 94 % 0 % 998,4 hPa 0,0 l/m 11,9 km/h (2 Bft) SO 135 0 min 0,0 UV-I 2,4 C -2,2 C 19,6 km/h (3 Bft)
05.12.2011 08:05 4,3 C 11,3 C 3,7 C 3,3 C 1,3 C 0,0 C 87 % 94 % 0 % 998,4 hPa 0,0 l/m 12,2 km/h (2 Bft) SW 225 0 min 0,0 UV-I 2,3 C -2,3 C 13,8 km/h (3 Bft)
05.12.2011 08:10 4,2 C 11,3 C 3,7 C 3,5 C 1,2 C 0,0 C 87 % 94 % 0 % 998,4 hPa 0,0 l/m 12,4 km/h (3 Bft) W 270 0 min 0,0 UV-I 2,2 C -2,4 C 17,4 km/h (3 Bft)
05.12.2011 08:15 4,2 C 11,3 C 3,7 C 3,5 C 1,3 C 0,0 C 87 % 94 % 0 % 998,4 hPa 0,0 l/m 12,2 km/h (2 Bft) W-SW 247 0 min 0,0 UV-I 2,2 C -2,3 C 17,1 km/h (3 Bft)
05.12.2011 08:20 4,1 C 11,2 C 3,6 C 3,5 C 1,1 C 0,0 C 87 % 94 % 0 % 999,1 hPa 0,0 l/m 12,2 km/h (2 Bft) SW 225 0 min 0,0 UV-I 2,1 C -2,5 C 15,3 km/h (3 Bft)
05.12.2011 08:25 4,1 C 11,2 C 3,6 C 3,4 C 1,2 C 0,0 C 87 % 94 % 0 % 999,1 hPa 0,0 l/m 11,7 km/h (2 Bft) SW 225 0 min 0,0 UV-I 2,1 C -2,3 C 12,4 km/h (3 Bft)
05.12.2011 08:30 4,1 C 11,2 C 3,6 C 3,5 C 1,4 C 0,0 C 87 % 94 % 0 % 999,1 hPa 0,0 l/m 11,4 km/h (2 Bft) W 270 0 min 0,0 UV-I 2,1 C -2,0 C 9,5 km/h (2 Bft)
05.12.2011 08:35 4,1 C 11,2 C 3,6 C 3,5 C 1,3 C 0,0 C 86 % 94 % 0 % 999,1 hPa 0,0 l/m 11,9 km/h (2 Bft) W-SW 247 0 min 0,0 UV-I 2,0 C -2,2 C 14,8 km/h (3 Bft)
05.12.2011 08:40 4,1 C 11,2 C 3,6 C 3,5 C 1,1 C 0,0 C 86 % 94 % 0 % 1000,0 hPa 0,0 l/m 13,0 km/h (3 Bft) SW 225 0 min 0,0 UV-I 2,0 C -2,7 C 19,5 km/h (3 Bft)
05.12.2011 08:45 4,1 C 11,1 C 3,7 C 3,4 C 0,9 C 0,0 C 85 % 94 % 0 % 1000,0 hPa 0,0 l/m 14,3 km/h (3 Bft) W-SW 247 0 min 0,0 UV-I 1,8 C -3,2 C 18,0 km/h (3 Bft)
05.12.2011 08:50 4,1 C 11,1 C 3,6 C 3,0 C 0,9 C 0,0 C 85 % 93 % 0 % 1000,0 hPa 0,0 l/m 14,5 km/h (3 Bft) SW 225 0 min 0,0 UV-I 1,8 C -3,2 C 18,2 km/h (3 Bft)
05.12.2011 08:55 4,1 C 11,1 C 3,6 C 3,4 C 1,1 C 0,0 C 85 % 93 % 0 % 1000,0 hPa 0,0 l/m 13,4 km/h (3 Bft) W-SW 247 0 min 0,0 UV-I 1,8 C -2,8 C 13,7 km/h (3 Bft)
05.12.2011 09:00 4,1 C 11,1 C 3,7 C 3,5 C 1,3 C 0,0 C 85 % 93 % 0 % 1000,6 hPa 0,0 l/m 12,4 km/h (3 Bft) W-SW 247 0 min 0,0 UV-I 1,8 C -2,3 C 19,2 km/h (3 Bft)
05.12.2011 09:10 4,2 C 11,1 C 3,6 C 3,6 C 1,5 C 0,0 C 85 % 93 % 0 % 1000,6 hPa 0,0 l/m 12,1 km/h (2 Bft) N 0 0 min 0,0 UV-I 1,9 C -2,0 C 11,6 km/h (2 Bft)
05.12.2011 09:20 4,3 C 11,1 C 3,7 C 3,6 C 0,8 C 0,0 C 84 % 92 % 0 % 1000,9 hPa 0,0 l/m 15,9 km/h (3 Bft) W-SW 247 0 min 0,0 UV-I 1,8 C -3,6 C 20,4 km/h (4 Bft)
05.12.2011 09:25 4,3 C 11,1 C 3,7 C 3,6 C 1,2 C 0,0 C 84 % 92 % 0 % 1000,9 hPa 0,0 l/m 13,8 km/h (3 Bft) W-SW 247 0 min 0,0 UV-I 1,8 C -2,7 C 10,8 km/h (2 Bft)
05.12.2011 09:30 4,1 C 11,1 C 3,7 C 3,4 C 1,0 C 0,0 C 84 % 92 % 0 % 1000,9 hPa 0,0 l/m 13,5 km/h (3 Bft) W-SW 247 0 min 0,0 UV-I 1,6 C -2,9 C 18,7 km/h (3 Bft)
05.12.2011 09:35 4,1 C 11,0 C 3,6 C 3,4 C 1,2 C 0,0 C 83 % 92 % 0 % 1000,9 hPa 0,0 l/m 12,7 km/h (3 Bft) W-SW 247 0 min 0,0 UV-I 1,5 C -2,5 C 22,7 km/h (4 Bft)
05.12.2011 09:40 4,1 C 11,0 C 3,5 C 3,4 C 1,0 C 0,0 C 83 % 92 % 0 % 1001,8 hPa 0,0 l/m 13,5 km/h (3 Bft) W-SW 247 0 min 0,0 UV-I 1,5 C -2,9 C 14,6 km/h (3 Bft)
05.12.2011 09:45 4,0 C 11,0 C 3,5 C 3,3 C 0,9 C 0,0 C 82 % 91 % 0 % 1001,8 hPa 0,0 l/m 14,5 km/h (3 Bft) SW 225 0 min 0,0 UV-I 1,2 C -3,2 C 24,1 km/h (4 Bft)
05.12.2011 09:50 4,0 C 11,0 C 3,5 C 3,4 C 1,0 C 0,0 C 82 % 91 % 0 % 1001,8 hPa 0,0 l/m 14,0 km/h (3 Bft) SW 225 0 min 0,0 UV-I 1,2 C -3,0 C 13,4 km/h (3 Bft)
05.12.2011 09:55 4,1 C 11,0 C 3,5 C 3,5 C 1,2 C 0,0 C 82 % 91 % 0 % 1001,8 hPa 0,0 l/m 13,8 km/h (3 Bft) W-NW 292 0 min 0,0 UV-I 1,3 C -2,7 C 20,9 km/h (4 Bft)
05.12.2011 10:00 4,1 C 10,9 C 3,7 C 3,5 C 1,1 C 0,0 C 81 % 90 % 0 % 1001,7 hPa 0,0 l/m 14,0 km/h (3 Bft) W-SW 247 0 min 0,0 UV-I 1,1 C -2,9 C 13,2 km/h (3 Bft)
05.12.2011 10:10 4,2 C 10,9 C 3,7 C 3,2 C 1,1 C 0,0 C 80 % 90 % 0 % 1001,7 hPa 0,0 l/m 16,4 km/h (3 Bft) N 0 0 min 0,0 UV-I 1,1 C -3,3 C 17,9 km/h (3 Bft)
05.12.2011 10:20 4,1 C 10,9 C 3,7 C 3,5 C 0,9 C 0,0 C 80 % 89 % 0 % 1001,7 hPa 0,0 l/m 16,4 km/h (3 Bft) W-SW 247 0 min 0,0 UV-I 1,0 C -3,6 C 29,9 km/h (5 Bft)
05.12.2011 10:25 4,1 C 10,9 C 3,7 C 3,5 C 1,0 C 0,0 C 80 % 89 % 0 % 1001,7 hPa 0,0 l/m 16,9 km/h (3 Bft) SW 225 0 min 0,0 UV-I 1,0 C -3,5 C 17,2 km/h (3 Bft)
05.12.2011 10:30 4,1 C 10,9 C 3,8 C 3,5 C 1,1 C 0,0 C 80 % 88 % 0 % 1001,7 hPa 0,0 l/m 17,4 km/h (3 Bft) SW 225 0 min 0,0 UV-I 1,0 C -3,5 C 19,3 km/h (3 Bft)
05.12.2011 10:35 4,1 C 10,8 C 3,9 C 3,5 C 1,2 C 0,0 C 79 % 88 % 0 % 1001,7 hPa 0,0 l/m 18,2 km/h (3 Bft) SW 225 0 min 0,0 UV-I 0,8 C -3,5 C 31,1 km/h (5 Bft)
05.12.2011 10:40 4,1 C 10,8 C 3,9 C 3,6 C 1,3 C 0,0 C 79 % 87 % 0 % 1002,9 hPa 0,0 l/m 18,3 km/h (3 Bft) W 270 0 min 0,0 UV-I 0,8 C -3,4 C 18,5 km/h (3 Bft)
05.12.2011 10:45 4,1 C 10,7 C 3,9 C 3,6 C 1,4 C 0,0 C 79 % 87 % 0 % 1002,9 hPa 0,0 l/m 16,9 km/h (3 Bft) SW 225 0 min 0,0 UV-I 0,8 C -3,0 C 22,4 km/h (4 Bft)
05.12.2011 10:50 4,1 C 10,7 C 4,1 C 3,7 C 1,9 C 0,0 C 79 % 86 % 0 % 1002,9 hPa 0,0 l/m 15,0 km/h (3 Bft) W 270 0 min 0,0 UV-I 0,8 C -2,1 C 15,6 km/h (3 Bft)
05.12.2011 10:55 4,1 C 10,7 C 4,0 C 3,7 C 1,7 C 0,0 C 79 % 86 % 0 % 1002,9 hPa 0,0 l/m 13,7 km/h (3 Bft) SW 225 0 min 0,0 UV-I 0,8 C -2,1 C 14,3 km/h (3 Bft)
05.12.2011 11:00 4,1 C 10,7 C 3,9 C 3,6 C 1,6 C 0,0 C 78 % 85 % 0 % 1002,7 hPa 0,0 l/m 13,8 km/h (3 Bft) SW 225 0 min 0,0 UV-I 0,6 C -2,2 C 18,2 km/h (3 Bft)
05.12.2011 11:10 4,1 C 10,8 C 3,9 C 3,6 C 1,4 C 0,0 C 78 % 84 % 0 % 1002,7 hPa 0,0 l/m 15,9 km/h (3 Bft) N 0 0 min 0,0 UV-I 0,6 C -2,8 C 21,1 km/h (4 Bft)
05.12.2011 11:20 4,1 C 10,8 C 4,0 C 3,6 C 1,6 C 0,0 C 76 % 83 % 0 % 1003,1 hPa 0,0 l/m 16,1 km/h (3 Bft) W 270 0 min 0,0 UV-I 0,3 C -2,6 C 19,0 km/h (3 Bft)
05.12.2011 11:25 4,3 C 10,8 C 4,0 C 3,8 C 1,8 C 0,0 C 77 % 83 % 0 % 1003,1 hPa 0,0 l/m 16,9 km/h (3 Bft) SW 225 0 min 0,0 UV-I 0,6 C -2,5 C 31,5 km/h (5 Bft)
05.12.2011 11:30 4,2 C 10,8 C 4,0 C 3,4 C 1,8 C 0,0 C 76 % 82 % 0 % 1003,1 hPa 0,0 l/m 17,1 km/h (3 Bft) W-SW 247 0 min 0,0 UV-I 0,4 C -2,5 C 30,4 km/h (5 Bft)
05.12.2011 11:35 4,3 C 10,7 C 4,1 C 3,9 C 2,0 C 0,0 C 77 % 83 % 0 % 1003,1 hPa 0,0 l/m 15,3 km/h (3 Bft) W-SW 247 0 min 0,0 UV-I 0,6 C -2,0 C 11,6 km/h (2 Bft)
05.12.2011 11:40 4,3 C 10,7 C 4,2 C 3,9 C 1,9 C 0,0 C 77 % 83 % 0 % 1002,9 hPa 0,0 l/m 14,6 km/h (3 Bft) W-SW 247 0 min 0,0 UV-I 0,6 C -2,0 C 14,0 km/h (3 Bft)
05.12.2011 11:45 4,3 C 10,6 C 4,3 C 3,5 C 1,9 C 0,0 C 77 % 82 % 0 % 1002,9 hPa 0,0 l/m 15,0 km/h (3 Bft) W-SW 247 0 min 0,0 UV-I 0,6 C -2,1 C 11,9 km/h (2 Bft)
05.12.2011 11:50 4,5 C 10,6 C 4,4 C 4,0 C 2,0 C 0,0 C 77 % 82 % 0 % 1002,9 hPa 0,0 l/m 15,3 km/h (3 Bft) W-SW 247 0 min 0,0 UV-I 0,8 C -2,0 C 18,2 km/h (3 Bft)
05.12.2011 11:55 4,4 C 10,6 C 4,4 C 4,0 C 2,2 C 0,0 C 77 % 82 % 0 % 1002,9 hPa 0,0 l/m 13,5 km/h (3 Bft) W-SW 247 0 min 0,0 UV-I 0,7 C -1,4 C 14,6 km/h (3 Bft)
05.12.2011 12:00 4,5 C 10,6 C 4,5 C 3,7 C 2,2 C 0,0 C 77 % 81 % 0 % 1003,2 hPa 0,0 l/m 14,5 km/h (3 Bft) S-SW 202 0 min 0,0 UV-I 0,8 C -1,6 C 15,0 km/h (3 Bft)
05.12.2011 12:10 4,5 C 10,6 C 4,4 C 4,0 C 1,6 C 0,0 C 76 % 80 % 0 % 1003,2 hPa 0,0 l/m 18,0 km/h (3 Bft) N 0 0 min 0,0 UV-I 0,6 C -2,9 C 27,8 km/h (4 Bft)
05.12.2011 12:20 4,6 C 10,6 C 4,5 C 4,0 C 1,9 C 0,0 C 77 % 81 % 0 % 1003,6 hPa 0,0 l/m 16,1 km/h (3 Bft) W-SW 247 0 min 0,0 UV-I 0,9 C -2,3 C 22,0 km/h (4 Bft)
05.12.2011 12:25 4,6 C 10,6 C 4,7 C 4,1 C 2,2 C 0,0 C 76 % 80 % 0 % 1003,6 hPa 0,0 l/m 16,1 km/h (3 Bft) S-SW 202 0 min 0,0 UV-I 0,7 C -1,9 C 29,0 km/h (5 Bft)
05.12.2011 12:30 4,7 C 10,6 C 4,7 C 4,3 C 2,6 C 0,0 C 75 % 80 % 0 % 1003,6 hPa 0,0 l/m 15,6 km/h (3 Bft) W 270 0 min 0,0 UV-I 0,7 C -1,3 C 18,0 km/h (3 Bft)
05.12.2011 12:35 4,6 C 10,6 C 4,7 C 4,2 C 2,4 C 0,0 C 76 % 80 % 0 % 1003,6 hPa 0,0 l/m 14,8 km/h (3 Bft) W-SW 247 0 min 0,0 UV-I 0,7 C -1,4 C 13,8 km/h (3 Bft)
05.12.2011 12:40 4,7 C 10,6 C 4,6 C 4,2 C 2,1 C 0,0 C 76 % 80 % 0 % 1003,8 hPa 0,0 l/m 15,1 km/h (3 Bft) W-SW 247 0 min 0,0 UV-I 0,8 C -1,8 C 13,2 km/h (3 Bft)
05.12.2011 12:45 4,6 C 10,5 C 4,5 C 3,8 C 2,1 C 0,0 C 76 % 80 % 0 % 1003,8 hPa 0,0 l/m 13,5 km/h (3 Bft) S 180 0 min 0,0 UV-I 0,7 C -1,6 C 20,6 km/h (4 Bft)
05.12.2011 12:50 4,5 C 10,5 C 4,5 C 4,0 C 2,0 C 0,0 C 75 % 79 % 0 % 1003,8 hPa 0,0 l/m 14,2 km/h (3 Bft) W-SW 247 0 min 0,0 UV-I 0,5 C -1,8 C 15,0 km/h (3 Bft)
05.12.2011 12:55 4,6 C 10,5 C 4,5 C 4,1 C 1,9 C 0,0 C 75 % 80 % 0 % 1003,8 hPa 0,0 l/m 15,0 km/h (3 Bft) W 270 0 min 0,0 UV-I 0,6 C -2,1 C 31,1 km/h (5 Bft)
05.12.2011 13:00 4,6 C 10,5 C 4,5 C 4,1 C 2,3 C 0,0 C 75 % 79 % 0 % 1003,9 hPa 0,0 l/m 13,4 km/h (3 Bft) SW 225 0 min 0,0 UV-I 0,6 C -1,3 C 8,0 km/h (2 Bft)
05.12.2011 13:10 4,7 C 10,5 C 4,7 C 4,2 C 2,2 C 0,0 C 75 % 79 % 0 % 1003,9 hPa 0,0 l/m 14,2 km/h (3 Bft) N 0 0 min 0,0 UV-I 0,7 C -1,6 C 22,9 km/h (4 Bft)
05.12.2011 13:20 4,7 C 10,5 C 4,8 C 4,3 C 2,7 C 0,0 C 75 % 79 % 0 % 1003,9 hPa 0,0 l/m 13,8 km/h (3 Bft) W-SW 247 0 min 0,0 UV-I 0,7 C -0,9 C 18,0 km/h (3 Bft)
05.12.2011 13:25 4,9 C 10,5 C 4,8 C 4,5 C 2,6 C 0,0 C 74 % 78 % 0 % 1003,9 hPa 0,0 l/m 15,6 km/h (3 Bft) SW 225 0 min 0,0 UV-I 0,7 C -1,3 C 14,2 km/h (3 Bft)
05.12.2011 13:30 4,8 C 10,5 C 4,8 C 4,4 C 2,3 C 0,0 C 73 % 77 % 0 % 1003,9 hPa 0,0 l/m 17,1 km/h (3 Bft) W-SW 247 0 min 0,0 UV-I 0,4 C -1,9 C 23,2 km/h (4 Bft)
05.12.2011 13:35 4,9 C 10,5 C 4,8 C 4,4 C 2,0 C 0,0 C 72 % 76 % 0 % 1003,9 hPa 0,0 l/m 18,5 km/h (3 Bft) W-SW 247 0 min 0,0 UV-I 0,3 C -2,5 C 36,4 km/h (5 Bft)
05.12.2011 13:40 4,8 C 10,5 C 4,7 C 4,2 C 1,9 C 0,0 C 72 % 76 % 0 % 1004,1 hPa 0,0 l/m 17,9 km/h (3 Bft) W-SW 247 0 min 0,0 UV-I 0,2 C -2,5 C 15,1 km/h (3 Bft)
05.12.2011 13:45 4,7 C 10,5 C 4,7 C 4,2 C 2,0 C 0,0 C 71 % 76 % 0 % 1004,1 hPa 0,0 l/m 15,4 km/h (3 Bft) SW 225 0 min 0,0 UV-I -0,1 C -2,0 C 17,9 km/h (3 Bft)
05.12.2011 13:50 4,7 C 10,4 C 4,6 C 4,1 C 1,8 C 0,0 C 71 % 75 % 0 % 1004,1 hPa 0,0 l/m 16,7 km/h (3 Bft) W-SW 247 0 min 0,0 UV-I -0,1 C -2,5 C 25,3 km/h (4 Bft)
05.12.2011 13:55 4,7 C 10,4 C 4,7 C 4,1 C 1,6 C 0,0 C 71 % 75 % 0 % 1004,1 hPa 0,0 l/m 17,9 km/h (3 Bft) W-SW 247 0 min 0,0 UV-I -0,1 C -2,9 C 22,2 km/h (4 Bft)
05.12.2011 14:00 4,7 C 10,4 C 4,7 C 3,7 C 1,6 C 0,0 C 71 % 75 % 0 % 1004,4 hPa 0,0 l/m 18,2 km/h (3 Bft) W-SW 247 0 min 0,0 UV-I -0,1 C -3,0 C 15,9 km/h (3 Bft)
05.12.2011 14:10 4,6 C 10,4 C 4,6 C 3,6 C 1,6 C 0,0 C 72 % 76 % 0 % 1004,4 hPa 0,0 l/m 16,4 km/h (3 Bft) N 0 0 min 0,0 UV-I -0,0 C -2,7 C 17,4 km/h (3 Bft)
05.12.2011 14:20 4,5 C 10,4 C 4,4 C 3,9 C 1,8 C 0,0 C 72 % 77 % 0 % 1004,7 hPa 0,0 l/m 12,1 km/h (2 Bft) SW 225 0 min 0,0 UV-I -0,1 C -1,6 C 11,9 km/h (2 Bft)
05.12.2011 14:25 4,4 C 10,4 C 4,4 C 3,5 C 1,8 C 0,0 C 72 % 77 % 0 % 1004,7 hPa 0,0 l/m 11,7 km/h (2 Bft) W-SW 247 0 min 0,0 UV-I -0,2 C -1,6 C 17,2 km/h (3 Bft)
05.12.2011 14:30 4,4 C 10,4 C 4,4 C 3,5 C 1,8 C 0,0 C 73 % 77 % 0 % 1004,7 hPa 0,0 l/m 12,7 km/h (3 Bft) W-SW 247 0 min 0,0 UV-I -0,0 C -1,8 C 23,0 km/h (4 Bft)
05.12.2011 14:35 4,5 C 10,4 C 4,3 C 3,8 C 1,3 C 0,0 C 73 % 76 % 0 % 1004,7 hPa 0,0 l/m 13,7 km/h (3 Bft) W-SW 247 0 min 0,0 UV-I 0,1 C -2,6 C 14,0 km/h (3 Bft)
05.12.2011 14:40 4,4 C 10,5 C 4,3 C 3,7 C 1,1 C 0,0 C 73 % 77 % 0 % 1004,8 hPa 0,0 l/m 14,0 km/h (3 Bft) W-SW 247 0 min 0,0 UV-I -0,0 C -2,9 C 17,4 km/h (3 Bft)
05.12.2011 14:45 4,2 C 10,5 C 4,1 C 3,2 C 1,1 C 0,0 C 74 % 78 % 0 % 1004,8 hPa 0,0 l/m 11,7 km/h (2 Bft) W 270 0 min 0,0 UV-I -0,0 C -2,4 C 15,6 km/h (3 Bft)
05.12.2011 14:50 4,3 C 10,5 C 4,0 C 3,2 C 1,1 C 0,0 C 74 % 78 % 0 % 1004,8 hPa 0,0 l/m 11,3 km/h (2 Bft) SW 225 0 min 0,0 UV-I 0,1 C -2,3 C 13,5 km/h (3 Bft)
05.12.2011 14:55 4,1 C 10,5 C 4,0 C 3,1 C 1,1 C 0,0 C 74 % 78 % 0 % 1004,8 hPa 0,0 l/m 11,3 km/h (2 Bft) W-SW 247 0 min 0,0 UV-I -0,1 C -2,3 C 10,0 km/h (2 Bft)
05.12.2011 15:00 4,1 C 10,5 C 4,0 C 3,1 C 1,1 C 0,0 C 74 % 79 % 0 % 1005,0 hPa 0,0 l/m 10,9 km/h (2 Bft) SW 225 0 min 0,0 UV-I -0,1 C -2,2 C 14,6 km/h (3 Bft)
05.12.2011 15:10 4,1 C 10,5 C 4,0 C 3,4 C 1,2 C 0,0 C 75 % 79 % 0 % 1005,0 hPa 0,0 l/m 12,1 km/h (2 Bft) N 0 0 min 0,0 UV-I 0,1 C -2,4 C 10,9 km/h (2 Bft)
05.12.2011 15:20 4,2 C 10,3 C 4,1 C 3,5 C 0,8 C 0,0 C 74 % 78 % 0 % 1005,0 hPa 0,0 l/m 13,4 km/h (3 Bft) W-SW 247 0 min 0,0 UV-I -0,0 C -3,1 C 19,5 km/h (3 Bft)
05.12.2011 15:25 4,1 C 10,3 C 4,0 C 3,3 C 0,3 C 0,0 C 73 % 77 % 0 % 1005,0 hPa 0,0 l/m 15,3 km/h (3 Bft) W-SW 247 0 min 0,0 UV-I -0,3 C -4,1 C 22,5 km/h (4 Bft)
05.12.2011 15:30 4,0 C 10,3 C 3,9 C 3,2 C 0,4 C 0,0 C 73 % 77 % 0 % 1005,0 hPa 0,0 l/m 13,5 km/h (3 Bft) W-SW 247 0 min 0,0 UV-I -0,4 C -3,6 C 20,1 km/h (4 Bft)
05.12.2011 15:35 4,0 C 10,3 C 3,9 C 3,1 C 0,2 C 0,0 C 72 % 76 % 0 % 1005,0 hPa 0,0 l/m 14,8 km/h (3 Bft) S 180 0 min 0,0 UV-I -0,6 C -4,1 C 14,8 km/h (3 Bft)
05.12.2011 15:40 4,0 C 10,3 C 3,8 C 3,1 C -0,1 C 0,0 C 72 % 76 % 0 % 1005,3 hPa 0,0 l/m 16,6 km/h (3 Bft) SW 225 0 min 0,0 UV-I -0,6 C -4,8 C 25,6 km/h (4 Bft)
05.12.2011 15:45 4,0 C 10,3 C 3,9 C 3,0 C -0,2 C 0,0 C 71 % 76 % 0 % 1005,3 hPa 0,0 l/m 17,4 km/h (3 Bft) SW 225 0 min 0,0 UV-I -0,8 C -5,1 C 21,6 km/h (4 Bft)
05.12.2011 15:50 4,0 C 10,3 C 3,8 C 3,0 C -0,1 C 0,0 C 71 % 76 % 0 % 1005,3 hPa 0,0 l/m 16,7 km/h (3 Bft) W 270 0 min 0,0 UV-I -0,8 C -4,8 C 12,1 km/h (2 Bft)
05.12.2011 15:55 4,0 C 10,3 C 3,8 C 3,1 C 0,1 C 0,0 C 72 % 76 % 0 % 1005,3 hPa 0,0 l/m 15,3 km/h (3 Bft) SW 225 0 min 0,0 UV-I -0,6 C -4,3 C 18,0 km/h (3 Bft)
05.12.2011 16:00 3,9 C 10,3 C 3,6 C 3,0 C 0,2 C 0,0 C 72 % 77 % 0 % 1005,8 hPa 0,0 l/m 13,2 km/h (3 Bft) W-SW 247 0 min 0,0 UV-I -0,7 C -3,8 C 14,0 km/h (3 Bft)
05.12.2011 16:10 3,7 C 10,3 C 3,5 C 2,9 C 0,6 C 0,0 C 75 % 79 % 0 % 1005,8 hPa 0,0 l/m 8,9 km/h (2 Bft) N 0 0 min 0,0 UV-I -0,3 C -2,3 C 9,7 km/h (2 Bft)
05.12.2011 16:20 3,6 C 10,3 C 3,3 C 2,8 C -0,1 C 0,0 C 76 % 79 % 0 % 1005,9 hPa 0,0 l/m 10,3 km/h (2 Bft) W-SW 247 0 min 0,0 UV-I -0,2 C -3,5 C 13,0 km/h (3 Bft)
05.12.2011 16:25 3,5 C 10,4 C 3,2 C 2,3 C -0,1 C 0,0 C 76 % 80 % 0 % 1005,9 hPa 0,0 l/m 10,5 km/h (2 Bft) W 270 0 min 0,0 UV-I -0,3 C -3,6 C 14,2 km/h (3 Bft)
05.12.2011 16:30 3,5 C 10,4 C 3,2 C 2,6 C -0,2 C 0,0 C 76 % 80 % 0 % 1005,9 hPa 0,0 l/m 10,6 km/h (2 Bft) W-SW 247 0 min 0,0 UV-I -0,3 C -3,7 C 11,6 km/h (2 Bft)
05.12.2011 16:35 3,5 C 10,4 C 3,1 C 2,6 C 0,2 C 0,0 C 76 % 80 % 0 % 1005,9 hPa 0,0 l/m 8,9 km/h (2 Bft) W 270 0 min 0,0 UV-I -0,3 C -2,8 C 10,8 km/h (2 Bft)
05.12.2011 16:40 3,3 C 10,4 C 3,1 C 2,5 C 0,3 C 0,0 C 77 % 80 % 0 % 1006,7 hPa 0,0 l/m 7,9 km/h (2 Bft) SW 225 0 min 0,0 UV-I -0,3 C -2,4 C 16,9 km/h (3 Bft)
05.12.2011 16:45 3,2 C 10,3 C 3,1 C 2,4 C 0,8 C 0,0 C 77 % 80 % 0 % 1006,7 hPa 0,0 l/m 5,8 km/h (2 Bft) S 180 0 min 0,0 UV-I -0,4 C -1,0 C 10,3 km/h (2 Bft)
05.12.2011 16:50 3,3 C 10,3 C 3,1 C 2,4 C 0,7 C 0,0 C 77 % 80 % 0 % 1006,7 hPa 0,0 l/m 5,8 km/h (2 Bft) W-SW 247 0 min 0,0 UV-I -0,3 C -1,1 C 13,7 km/h (3 Bft)
05.12.2011 16:55 3,1 C 10,3 C 3,0 C 2,5 C 1,2 C 0,0 C 77 % 81 % 0 % 1006,7 hPa 0,0 l/m 4,2 km/h (1 Bft) S 180 0 min 0,0 UV-I -0,5 C 1,2 C 9,0 km/h (2 Bft)
05.12.2011 17:00 3,1 C 10,3 C 2,9 C 2,5 C 1,4 C 0,0 C 78 % 81 % 0 % 1007,0 hPa 0,0 l/m 3,4 km/h (1 Bft) S-SO 157 0 min 0,0 UV-I -0,4 C 1,4 C 2,6 km/h (1 Bft)
05.12.2011 17:10 3,1 C 10,3 C 2,9 C 2,6 C 1,5 C 0,0 C 78 % 81 % 0 % 1007,0 hPa 0,0 l/m 3,2 km/h (1 Bft) N 0 0 min 0,0 UV-I -0,4 C 1,5 C 2,7 km/h (1 Bft)
05.12.2011 17:20 2,8 C 10,3 C 2,9 C 2,3 C 1,4 C 0,0 C 78 % 81 % 0 % 1006,2 hPa 0,0 l/m 3,1 km/h (1 Bft) W-SW 247 0 min 0,0 UV-I -0,6 C 1,4 C 7,9 km/h (2 Bft)
05.12.2011 17:25 2,9 C 10,3 C 2,8 C 2,2 C 0,7 C 0,0 C 78 % 81 % 0 % 1006,2 hPa 0,0 l/m 4,0 km/h (1 Bft) SO 135 0 min 0,0 UV-I -0,5 C 0,7 C 5,5 km/h (1 Bft)
05.12.2011 17:30 2,9 C 10,3 C 2,8 C 2,2 C 0,7 C 0,0 C 78 % 81 % 0 % 1006,2 hPa 0,0 l/m 4,3 km/h (1 Bft) N 360 0 min 0,0 UV-I -0,5 C 0,7 C 3,9 km/h (1 Bft)
05.12.2011 17:35 2,8 C 10,3 C 2,9 C 2,1 C 0,7 C 0,0 C 78 % 80 % 0 % 1006,2 hPa 0,0 l/m 4,5 km/h (1 Bft) SW 225 0 min 0,0 UV-I -0,6 C 0,7 C 3,4 km/h (1 Bft)
05.12.2011 17:40 2,8 C 10,3 C 2,8 C 2,2 C 0,9 C 0,0 C 78 % 80 % 0 % 1006,9 hPa 0,0 l/m 4,0 km/h (1 Bft) SW 225 0 min 0,0 UV-I -0,6 C 0,9 C 5,5 km/h (1 Bft)
05.12.2011 17:45 2,8 C 10,3 C 2,8 C 2,2 C 1,1 C 0,0 C 77 % 80 % 0 % 1006,9 hPa 0,0 l/m 3,9 km/h (1 Bft) S-SO 157 0 min 0,0 UV-I -0,8 C 1,1 C 5,3 km/h (1 Bft)
05.12.2011 17:50 2,8 C 10,3 C 2,8 C 2,2 C 0,9 C 0,0 C 77 % 80 % 0 % 1006,9 hPa 0,0 l/m 4,2 km/h (1 Bft) W-SW 247 0 min 0,0 UV-I -0,8 C 0,9 C 3,9 km/h (1 Bft)
05.12.2011 17:55 2,9 C 10,3 C 2,9 C 2,4 C 1,4 C 0,0 C 77 % 80 % 0 % 1006,9 hPa 0,0 l/m 4,0 km/h (1 Bft) W 270 0 min 0,0 UV-I -0,7 C 1,4 C 9,2 km/h (2 Bft)
05.12.2011 18:00 2,9 C 10,3 C 2,9 C 2,5 C 1,6 C 0,0 C 77 % 80 % 0 % 1006,9 hPa 0,0 l/m 4,2 km/h (1 Bft) W 270 0 min 0,0 UV-I -0,7 C 1,6 C 5,8 km/h (2 Bft)
05.12.2011 18:10 3,0 C 10,2 C 3,0 C 2,6 C 0,8 C 0,0 C 76 % 79 % 0 % 1006,9 hPa 0,0 l/m 7,7 km/h (2 Bft) N 0 0 min 0,0 UV-I -0,8 C -1,7 C 3,1 km/h (1 Bft)
05.12.2011 18:20 3,1 C 10,1 C 3,1 C 2,6 C 1,7 C 0,0 C 76 % 79 % 0 % 1007,2 hPa 0,0 l/m 5,6 km/h (1 Bft) S-SO 157 0 min 0,0 UV-I -0,7 C 0,1 C 14,5 km/h (3 Bft)
05.12.2011 18:25 3,1 C 10,2 C 3,0 C 2,4 C 1,1 C 0,0 C 76 % 79 % 0 % 1007,2 hPa 0,0 l/m 6,9 km/h (2 Bft) W-SW 247 0 min 0,0 UV-I -0,7 C -1,1 C 12,1 km/h (2 Bft)
05.12.2011 18:30 3,1 C 10,1 C 3,1 C 2,3 C 0,8 C 0,0 C 76 % 79 % 0 % 1007,2 hPa 0,0 l/m 7,6 km/h (2 Bft) S 180 0 min 0,0 UV-I -0,7 C -1,7 C 5,1 km/h (1 Bft)
05.12.2011 18:35 3,1 C 10,2 C 3,0 C 2,3 C 0,6 C 0,0 C 76 % 79 % 0 % 1007,2 hPa 0,0 l/m 7,1 km/h (2 Bft) S-SW 202 0 min 0,0 UV-I -0,7 C -1,7 C 10,0 km/h (2 Bft)
05.12.2011 18:40 3,1 C 10,2 C 3,0 C 2,2 C 0,3 C 0,0 C 75 % 79 % 0 % 1007,1 hPa 0,0 l/m 7,4 km/h (2 Bft) NW 315 0 min 0,0 UV-I -0,9 C -2,2 C 13,4 km/h (3 Bft)
05.12.2011 18:45 3,1 C 10,2 C 2,9 C 2,3 C -0,3 C 0,0 C 75 % 79 % 0 % 1007,1 hPa 0,0 l/m 9,3 km/h (2 Bft) SO 135 0 min 0,0 UV-I -0,9 C -3,5 C 3,4 km/h (1 Bft)
05.12.2011 18:50 3,0 C 10,2 C 2,8 C 1,9 C -0,3 C 0,0 C 76 % 79 % 0 % 1007,1 hPa 0,0 l/m 8,9 km/h (2 Bft) W 270 0 min 0,0 UV-I -0,8 C -3,4 C 12,1 km/h (2 Bft)
05.12.2011 18:55 2,8 C 10,2 C 2,7 C 2,0 C -0,5 C 0,0 C 77 % 80 % 0 % 1007,1 hPa 0,0 l/m 9,0 km/h (2 Bft) W-SW 247 0 min 0,0 UV-I -0,8 C -3,6 C 12,6 km/h (3 Bft)
05.12.2011 19:00 2,8 C 10,2 C 2,7 C 2,0 C -0,7 C 0,0 C 77 % 80 % 0 % 1007,4 hPa 0,0 l/m 9,2 km/h (2 Bft) W 270 0 min 0,0 UV-I -0,8 C -3,9 C 6,8 km/h (2 Bft)
05.12.2011 19:10 2,5 C 10,2 C 2,4 C 1,6 C -0,3 C 0,0 C 78 % 81 % 0 % 1007,4 hPa 0,0 l/m 6,8 km/h (2 Bft) N 0 0 min 0,0 UV-I -0,9 C -2,7 C 7,7 km/h (2 Bft)
05.12.2011 19:20 2,4 C 10,2 C 2,4 C 1,5 C -0,3 C 0,0 C 78 % 81 % 0 % 1007,6 hPa 0,0 l/m 5,6 km/h (1 Bft) SW 225 0 min 0,0 UV-I -1,0 C -2,2 C 7,7 km/h (2 Bft)
05.12.2011 19:25 2,5 C 10,2 C 2,5 C 1,6 C -0,3 C 0,0 C 78 % 81 % 0 % 1007,6 hPa 0,0 l/m 6,0 km/h (2 Bft) W-SW 247 0 min 0,0 UV-I -0,9 C -2,4 C 6,4 km/h (2 Bft)
05.12.2011 19:30 2,5 C 10,2 C 2,4 C 1,6 C -0,2 C 0,0 C 78 % 81 % 0 % 1007,6 hPa 0,0 l/m 6,1 km/h (2 Bft) W-SW 247 0 min 0,0 UV-I -0,9 C -2,3 C 1,8 km/h (1 Bft)
05.12.2011 19:35 2,5 C 10,2 C 2,4 C 1,8 C 0,3 C 0,0 C 78 % 81 % 0 % 1007,6 hPa 0,0 l/m 4,8 km/h (1 Bft) N-NO 22 0 min 0,0 UV-I -0,9 C -1,2 C 4,5 km/h (1 Bft)
05.12.2011 19:40 2,5 C 10,2 C 2,4 C 1,7 C 0,2 C 0,0 C 78 % 81 % 0 % 1007,2 hPa 0,0 l/m 5,0 km/h (1 Bft) SW 225 0 min 0,0 UV-I -0,9 C -1,4 C 10,5 km/h (2 Bft)
05.12.2011 19:45 2,7 C 10,1 C 2,5 C 1,9 C 0,2 C 0,0 C 78 % 81 % 0 % 1007,2 hPa 0,0 l/m 5,5 km/h (1 Bft) S-SO 157 0 min 0,0 UV-I -0,7 C -1,6 C 8,9 km/h (2 Bft)
05.12.2011 19:50 2,7 C 10,1 C 2,7 C 1,9 C 0,3 C 0,0 C 78 % 81 % 0 % 1007,2 hPa 0,0 l/m 5,6 km/h (1 Bft) SW 225 0 min 0,0 UV-I -0,7 C -1,5 C 5,5 km/h (1 Bft)
05.12.2011 19:55 2,7 C 10,1 C 2,6 C 1,9 C 0,2 C 0,0 C 78 % 81 % 0 % 1007,2 hPa 0,0 l/m 6,3 km/h (2 Bft) SW 225 0 min 0,0 UV-I -0,7 C -1,9 C 11,4 km/h (2 Bft)
05.12.2011 20:00 2,7 C 10,1 C 2,7 C 1,9 C 0,3 C 0,0 C 78 % 81 % 0 % 1007,1 hPa 0,0 l/m 6,3 km/h (2 Bft) W 270 0 min 0,0 UV-I -0,7 C -1,8 C 4,7 km/h (1 Bft)
05.12.2011 20:10 2,8 C 10,1 C 2,7 C 2,1 C 0,6 C 0,0 C 77 % 80 % 0 % 1007,1 hPa 0,0 l/m 5,8 km/h (2 Bft) N 0 0 min 0,0 UV-I -0,8 C -1,3 C 16,1 km/h (3 Bft)
05.12.2011 20:20 2,8 C 10,1 C 2,8 C 2,2 C 0,0 C 0,0 C 76 % 79 % 0 % 1007,1 hPa 0,0 l/m 8,2 km/h (2 Bft) NO 45 0 min 0,0 UV-I -1,0 C -2,8 C 7,7 km/h (2 Bft)
05.12.2011 20:25 2,9 C 10,1 C 2,8 C 2,0 C 0,3 C 0,0 C 75 % 78 % 0 % 1007,1 hPa 0,0 l/m 7,6 km/h (2 Bft) SW 225 0 min 0,0 UV-I -1,1 C -2,3 C 7,1 km/h (2 Bft)
05.12.2011 20:30 2,9 C 10,1 C 2,8 C 2,2 C 0,9 C 0,0 C 75 % 78 % 0 % 1007,1 hPa 0,0 l/m 5,8 km/h (2 Bft) N-NW 337 0 min 0,0 UV-I -1,1 C -0,9 C 7,7 km/h (2 Bft)
05.12.2011 20:35 2,9 C 10,1 C 2,8 C 2,2 C 0,9 C 0,0 C 75 % 78 % 0 % 1007,1 hPa 0,0 l/m 5,8 km/h (2 Bft) W 270 0 min 0,0 UV-I -1,1 C -0,9 C 3,7 km/h (1 Bft)
05.12.2011 20:40 2,9 C 10,1 C 2,9 C 2,2 C 0,7 C 0,0 C 75 % 78 % 0 % 1007,5 hPa 0,0 l/m 6,0 km/h (2 Bft) S 180 0 min 0,0 UV-I -1,1 C -1,2 C 10,6 km/h (2 Bft)
05.12.2011 20:45 2,8 C 10,1 C 2,8 C 2,1 C 0,8 C 0,0 C 75 % 78 % 0 % 1007,5 hPa 0,0 l/m 5,3 km/h (1 Bft) NW 315 0 min 0,0 UV-I -1,2 C -0,8 C 4,8 km/h (1 Bft)
05.12.2011 20:50 2,8 C 10,1 C 2,9 C 2,0 C 0,5 C 0,0 C 75 % 78 % 0 % 1007,5 hPa 0,0 l/m 6,6 km/h (2 Bft) O-SO 112 0 min 0,0 UV-I -1,2 C -1,7 C 21,7 km/h (4 Bft)
05.12.2011 20:55 2,9 C 10,1 C 2,9 C 2,3 C 0,2 C 0,0 C 75 % 78 % 0 % 1007,5 hPa 0,0 l/m 7,9 km/h (2 Bft) W-SW 247 0 min 0,0 UV-I -1,1 C -2,5 C 5,8 km/h (2 Bft)
05.12.2011 21:00 2,9 C 10,1 C 2,9 C 2,3 C 0,3 C 0,0 C 75 % 78 % 0 % 1007,9 hPa 0,0 l/m 8,2 km/h (2 Bft) S 180 0 min 0,0 UV-I -1,1 C -2,4 C 17,9 km/h (3 Bft)
05.12.2011 21:10 3,1 C 10,0 C 2,9 C 2,4 C -0,2 C 0,0 C 74 % 78 % 0 % 1007,9 hPa 0,0 l/m 10,5 km/h (2 Bft) N 0 0 min 0,0 UV-I -1,1 C -3,7 C 14,5 km/h (3 Bft)
05.12.2011 21:20 3,1 C 10,0 C 2,9 C 2,4 C 0,2 C 0,0 C 74 % 77 % 0 % 1008,0 hPa 0,0 l/m 9,3 km/h (2 Bft) S 180 0 min 0,0 UV-I -1,1 C -2,9 C 8,4 km/h (2 Bft)
05.12.2011 21:25 3,1 C 10,0 C 3,1 C 2,3 C 0,7 C 0,0 C 74 % 77 % 0 % 1008,0 hPa 0,0 l/m 7,4 km/h (2 Bft) NO 45 0 min 0,0 UV-I -1,1 C -1,7 C 9,3 km/h (2 Bft)
05.12.2011 21:30 3,1 C 10,0 C 3,1 C 2,3 C 0,6 C 0,0 C 74 % 77 % 0 % 1008,0 hPa 0,0 l/m 7,6 km/h (2 Bft) S-SW 202 0 min 0,0 UV-I -1,1 C -1,9 C 8,0 km/h (2 Bft)
05.12.2011 21:35 3,1 C 10,0 C 3,1 C 2,5 C 0,4 C 0,0 C 74 % 77 % 0 % 1008,0 hPa 0,0 l/m 8,4 km/h (2 Bft) W-SW 247 0 min 0,0 UV-I -1,1 C -2,4 C 12,6 km/h (3 Bft)
05.12.2011 21:40 3,1 C 10,0 C 3,1 C 2,5 C 0,5 C 0,0 C 74 % 77 % 0 % 1007,7 hPa 0,0 l/m 7,9 km/h (2 Bft) SW 225 0 min 0,0 UV-I -1,1 C -2,1 C 7,9 km/h (2 Bft)
05.12.2011 21:45 3,1 C 10,0 C 3,1 C 2,3 C 0,7 C 0,0 C 74 % 77 % 0 % 1007,7 hPa 0,0 l/m 7,4 km/h (2 Bft) S-SO 157 0 min 0,0 UV-I -1,1 C -1,7 C 20,1 km/h (4 Bft)
05.12.2011 21:50 3,1 C 10,0 C 3,0 C 2,4 C 0,9 C 0,0 C 74 % 77 % 0 % 1007,7 hPa 0,0 l/m 6,8 km/h (2 Bft) W 270 0 min 0,0 UV-I -1,1 C -1,3 C 14,2 km/h (3 Bft)
05.12.2011 21:55 3,2 C 10,0 C 3,0 C 2,6 C 0,1 C 0,0 C 74 % 77 % 0 % 1007,7 hPa 0,0 l/m 10,3 km/h (2 Bft) SW 225 0 min 0,0 UV-I -1,0 C -3,3 C 20,4 km/h (4 Bft)
05.12.2011 22:00 3,2 C 10,0 C 3,0 C 2,4 C -0,2 C 0,0 C 74 % 77 % 0 % 1007,7 hPa 0,0 l/m 11,3 km/h (2 Bft) SW 225 0 min 0,0 UV-I -1,0 C -3,9 C 16,7 km/h (3 Bft)
05.12.2011 22:10 3,3 C 9,9 C 3,1 C 2,5 C -0,1 C 0,0 C 74 % 77 % 0 % 1007,7 hPa 0,0 l/m 11,4 km/h (2 Bft) N 0 0 min 0,0 UV-I -0,9 C -3,8 C 20,3 km/h (4 Bft)
05.12.2011 22:20 3,3 C 9,9 C 3,2 C 2,6 C 0,4 C 0,0 C 74 % 77 % 0 % 1008,1 hPa 0,0 l/m 10,5 km/h (2 Bft) W 270 0 min 0,0 UV-I -0,9 C -3,0 C 12,2 km/h (2 Bft)
05.12.2011 22:25 3,3 C 9,9 C 3,2 C 2,7 C 0,6 C 0,0 C 74 % 77 % 0 % 1008,1 hPa 0,0 l/m 9,7 km/h (2 Bft) NO 45 0 min 0,0 UV-I -0,9 C -2,5 C 4,8 km/h (1 Bft)
05.12.2011 22:30 3,3 C 9,9 C 3,2 C 2,7 C 0,4 C 0,0 C 74 % 77 % 0 % 1008,1 hPa 0,0 l/m 10,0 km/h (2 Bft) SW 225 0 min 0,0 UV-I -0,9 C -2,8 C 15,8 km/h (3 Bft)
05.12.2011 22:35 3,2 C 9,9 C 3,3 C 2,6 C 0,6 C 0,0 C 74 % 77 % 0 % 1008,1 hPa 0,0 l/m 9,5 km/h (2 Bft) S 180 0 min 0,0 UV-I -1,0 C -2,5 C 7,6 km/h (2 Bft)
05.12.2011 22:40 3,2 C 9,9 C 3,2 C 2,6 C 0,2 C 0,0 C 74 % 77 % 0 % 1007,1 hPa 0,0 l/m 10,8 km/h (2 Bft) N-NO 22 0 min 0,0 UV-I -1,0 C -3,3 C 16,3 km/h (3 Bft)
05.12.2011 22:45 3,3 C 9,9 C 3,2 C 2,6 C -0,1 C 0,0 C 74 % 77 % 0 % 1007,1 hPa 0,0 l/m 12,7 km/h (3 Bft) N-NW 337 0 min 0,0 UV-I -0,9 C -4,1 C 20,6 km/h (4 Bft)
05.12.2011 22:50 3,2 C 9,9 C 3,2 C 2,4 C -0,4 C 0,0 C 74 % 77 % 0 % 1007,1 hPa 0,0 l/m 13,7 km/h (3 Bft) W-SW 247 0 min 0,0 UV-I -1,0 C -4,7 C 20,9 km/h (4 Bft)
05.12.2011 22:55 3,2 C 9,8 C 3,1 C 2,4 C -0,3 C 0,0 C 75 % 78 % 0 % 1007,1 hPa 0,0 l/m 13,5 km/h (3 Bft) SW 225 0 min 0,0 UV-I -0,8 C -4,5 C 15,0 km/h (3 Bft)
05.12.2011 23:00 3,2 C 9,8 C 3,2 C 2,4 C -0,4 C 0,0 C 75 % 78 % 0 % 1007,2 hPa 0,0 l/m 14,8 km/h (3 Bft) W-SW 247 0 min 0,0 UV-I -0,8 C -4,9 C 25,9 km/h (4 Bft)
05.12.2011 23:10 3,2 C 9,9 C 3,1 C 2,3 C -0,9 C 0,0 C 78 % 80 % 0 % 1007,2 hPa 0,0 l/m 16,7 km/h (3 Bft) N 0 0 min 0,0 UV-I -0,3 C -5,8 C 25,7 km/h (4 Bft)
05.12.2011 23:20 2,2 C 10,3 C 1,9 C 1,2 C -3,0 C 0,0 C 83 % 86 % 0 % 1007,8 hPa 0,0 l/m 17,7 km/h (3 Bft) NW 315 0 min 0,0 UV-I -0,4 C -8,6 C 22,4 km/h (4 Bft)
05.12.2011 23:25 1,6 C 10,4 C 1,2 C 0,4 C -3,8 C 0,0 C 85 % 89 % 0 % 1007,8 hPa 0,0 l/m 17,2 km/h (3 Bft) W-SW 247 0 min 0,0 UV-I -0,6 C -9,5 C 20,0 km/h (4 Bft)
05.12.2011 23:30 1,5 C 10,4 C 0,9 C 0,2 C -4,2 C 0,0 C 86 % 90 % 0 % 1007,8 hPa 0,0 l/m 18,3 km/h (3 Bft) W-SW 247 0 min 0,0 UV-I -0,6 C -10,2 C 11,9 km/h (2 Bft)
05.12.2011 23:35 1,2 C 10,3 C 0,9 C -0,1 C -4,1 C 0,0 C 87 % 90 % 0 % 1007,8 hPa 0,0 l/m 16,6 km/h (3 Bft) W-SW 247 0 min 0,0 UV-I -0,7 C -9,8 C 20,4 km/h (4 Bft)
05.12.2011 23:40 1,2 C 10,3 C 0,8 C 0,0 C -3,6 C 0,0 C 88 % 91 % 0 % 1007,8 hPa 0,0 l/m 13,8 km/h (3 Bft) SW 225 0 min 0,0 UV-I -0,6 C -8,6 C 23,7 km/h (4 Bft)
05.12.2011 23:45 1,1 C 10,3 C 0,8 C 0,0 C -3,3 C 0,0 C 88 % 91 % 0 % 1007,8 hPa 0,0 l/m 12,7 km/h (3 Bft) W-SW 247 0 min 0,0 UV-I -0,7 C -8,0 C 13,0 km/h (3 Bft)
05.12.2011 23:50 1,1 C 10,3 C 0,8 C 0,0 C -3,6 C 0,0 C 88 % 91 % 0 % 1007,8 hPa 0,0 l/m 13,5 km/h (3 Bft) W-SW 247 0 min 0,0 UV-I -0,7 C -8,5 C 13,5 km/h (3 Bft)
05.12.2011 23:55 1,1 C 10,3 C 0,8 C 0,0 C -3,5 C 0,0 C 88 % 91 % 0 % 1007,8 hPa 0,0 l/m 14,0 km/h (3 Bft) W-SW 247 0 min 0,0 UV-I -0,7 C -8,5 C 14,8 km/h (3 Bft)
_ Min-Zeit 23:45 22:55 23:40 23:35 23:30 00:00 13:45 13:50 00:00 03:40 - 03:12 - - - 00:00 20:45 23:30 01:30
Minimum _ 1,1 C 9,8 C 0,8 C -0,1 C -4,2 C 0,0 C 71 % 75 % 0 % 992,8 hPa - 1,0 km/h (0 Bft) - - - 0,0 UV-I -1,2 C -10,2 C 0,0 km/h (0 Bft)
_ Max-Zeit 00:00 00:35 00:00 00:00 00:50 00:00 04:20 04:50 00:00 22:20 01:40 13:35 - - 00:00 00:00 00:50 00:50 13:35
Maximum _ 7,1 C 11,9 C 6,7 C 6,5 C 6,0 C 0,0 C 90 % 95 % 0 % 1008,1 hPa 1,4 l/m 18,5 km/h
W-SW (3 Bft)
- - 0 min 0,0 UV-I 4,6 C 6,0 C 36,4 km/h
W-SW (5 Bft)
Durchschnitt _ 4,1 C 10,9 C 3,9 C 3,4 C 1,5 C 0,0 C 81 % 86 % 0 % 1001,6 hPa #13,7 l/m 10,2 km/h (2 Bft) W-SW - #0 min. 0,0 UV-I 1,1 C -1,3 C 13,2 km/h (3 Bft)
2011 www.wetterstation-wechselburg.de